����21�N�x�@��C��������Ԃɂ�鑪�茋��,,,,,,,,,,,,,,
,,,,,,,,,,,,,,
�P�@����n�_,,,,,,,,,,,,,,
���C�s���a�i���C�s���a���O�Ԋ���45�|1�j,,,,,,,,,,,,,,
,,,,,,,,,,,,,,
�Q�@���Ԓl�i�m��l�j������21�N11��21���`����21�N12��11��,,,,,,,,,,,,,,
,,,,,,,,,,,,,,
,�N,��,��,��,SO2,SPM,Ox,CO,NO,NO2,���x,���x,����,����
,,,,,ppm,mg/m3,ppm,ppm,ppm,ppm,��,%,�P�U����,m/s
H02,2009,11,21,1,***,0.012,0.008,***,***,***,11.1,65.9,N,1.7
H02,2009,11,21,2,0.002,0.015,0.013,0.5,0.008,0.029,10.8,68.7,NNW,1.7
H02,2009,11,21,3,0.002,0.024,0.013,0.5,0.005,0.028,10.7,67.8,NNW,2.4
H02,2009,11,21,4,0.001,0.03,0.007,0.4,0.002,0.032,9.5,73.2,NNE,1.4
H02,2009,11,21,5,0.001,0.033,0.001,0.6,0.016,0.033,9.2,74.8,NNW,1.1
H02,2009,11,21,6,0.001,0.032,0,0.7,0.071,0.031,8.2,82,Calm,0.2
H02,2009,11,21,7,0.002,0.032,0,0.6,0.069,0.029,8.8,76.9,NNW,2
H02,2009,11,21,8,0.002,0.032,0.002,0.5,0.04,0.027,9.5,75.4,N,1.7
H02,2009,11,21,9,0.002,0.012,0.011,0.5,0.03,0.025,12.8,55.6,NNW,2.5
H02,2009,11,21,10,0.001,0.012,***,0.4,0.01,0.019,13.3,53.3,NNW,3.3
H02,2009,11,21,11,0,0.011,0.026,0.4,0.015,0.019,14.2,52.6,NW,2.4
H02,2009,11,21,12,0,0.015,0.026,0.4,0.014,0.02,14,52.6,NNW,2.4
H02,2009,11,21,13,0,0.01,0.03,0.3,0.012,0.015,14.7,46.7,NW,3.2
H02,2009,11,21,14,0.001,0.014,0.033,0.4,0.009,0.014,13.8,49.9,NW,3.3
H02,2009,11,21,15,0.001,0.016,0.03,0.4,0.009,0.015,12,59.8,WNW,3.4
H02,2009,11,21,16,0.001,0.016,0.029,0.4,0.01,0.017,12,54,WNW,2.9
H02,2009,11,21,17,0.001,0.017,0.026,0.5,0.009,0.02,10.8,63.7,WNW,2.7
H02,2009,11,21,18,0.001,0.022,0.022,0.6,0.015,0.024,10.4,64.5,WNW,1.5
H02,2009,11,21,19,0.001,0.017,0.019,0.6,0.013,0.024,9.8,64.7,NNW,1.5
H02,2009,11,21,20,0.001,0.021,0.016,0.7,0.012,0.026,9.7,61.8,NNW,2
H02,2009,11,21,21,0,0.022,0.02,0.6,0.007,0.022,9.3,63.6,NNW,1.8
H02,2009,11,21,22,0,0.023,0.019,0.6,0.007,0.023,8.7,66.4,N,1.8
H02,2009,11,21,23,0.001,0.021,0.015,0.7,0.011,0.027,8.8,66.2,NNW,1.2
H02,2009,11,21,24,0,0.013,0.016,0.5,0.007,0.026,8.8,63.9,NNW,2.5
H02,2009,11,22,1,0,0.013,0.017,0.5,0.006,0.023,8.9,63,N,1.8
H02,2009,11,22,2,0,0.01,0.023,0.4,0.001,0.015,8.9,56.8,N,2.2
H02,2009,11,22,3,0,0.004,0.024,0.4,0.003,0.013,8.7,58.3,NNW,1.7
H02,2009,11,22,4,0,0.013,0.025,0.4,0.001,0.011,8.4,57.6,N,1.8
H02,2009,11,22,5,0.002,0.027,0.023,0.4,0,0.012,7.8,62.2,N,0.9
H02,2009,11,22,6,0,0.017,0.009,0.4,0.008,0.024,7.2,72,W,0.9
H02,2009,11,22,7,0,0.022,0.002,0.5,0.02,0.027,7.3,77.7,WSW,0.7
H02,2009,11,22,8,0,0.022,0.005,0.6,0.021,0.025,7.6,74.7,NNE,0.6
H02,2009,11,22,9,0.001,0.017,0.007,0.6,0.02,0.024,9.6,63,ENE,1.2
H02,2009,11,22,10,0.001,0.013,***,0.5,0.005,0.018,9.5,64.2,NE,1.4
H02,2009,11,22,11,0,0.013,0.015,0.5,0.006,0.017,10.4,60.2,NE,1.9
H02,2009,11,22,12,0,0.017,0.018,0.4,0.005,0.015,11.4,53.7,NE,2.1
H02,2009,11,22,13,0.001,0.02,0.019,0.5,0.004,0.017,11.6,53.6,NE,1
H02,2009,11,22,14,0.001,0.022,0.018,0.6,0.006,0.021,11.5,53.9,N,1.7
H02,2009,11,22,15,0.001,0.021,0.012,0.7,0.017,0.031,11.2,57.2,NNW,1.1
H02,2009,11,22,16,0.001,0.029,0.009,0.7,0.019,0.031,10.2,72.6,NNW,1.4
H02,2009,11,22,17,0,0.037,0.008,0.8,0.022,0.031,9.5,79.5,NNW,1.3
H02,2009,11,22,18,0,0.046,0.009,0.8,0.019,0.029,8.5,85.2,NW,1.7
H02,2009,11,22,19,0,0.029,0.009,0.8,0.022,0.028,8.4,89.5,NW,1.1
H02,2009,11,22,20,0,0.031,0.009,0.7,0.016,0.027,8.2,91.1,NW,1.2
H02,2009,11,22,21,0,0.027,0.012,0.7,0.013,0.023,7.9,96.1,NNW,1.5
H02,2009,11,22,22,0,0.02,0.012,0.5,0.011,0.023,7.9,97.9,N,1.3
H02,2009,11,22,23,0,0.019,0.013,0.6,0.011,0.021,7.7,97.9,NNW,2.2
H02,2009,11,22,24,0,0.027,0.013,0.5,0.01,0.022,7.9,98.7,NNW,1
H02,2009,11,23,1,0,0.018,0.013,0.6,0.008,0.022,8,98,NNW,1
H02,2009,11,23,2,0,0.017,0.011,0.6,0.005,0.023,8.3,95.2,N,1.5
H02,2009,11,23,3,0,0.021,0.008,0.5,0.007,0.025,8.4,97.4,NW,0.4
H02,2009,11,23,4,0,0.024,0.01,0.4,0.008,0.022,8,94.6,W,0.9
H02,2009,11,23,5,0,0.02,0.008,0.4,0.013,0.024,7.8,92.5,NNW,1.8
H02,2009,11,23,6,0,0.026,0.004,0.4,0.013,0.027,7.3,92.8,N,1.6
H02,2009,11,23,7,0,0.024,0.003,0.5,0.018,0.027,6.6,97.5,N,0.8
H02,2009,11,23,8,0,0.021,0.005,0.6,0.022,0.026,8.4,90.8,NNE,0.9
H02,2009,11,23,9,0.001,0.014,0.01,0.5,0.026,0.025,11.3,75.3,N,0.8
H02,2009,11,23,10,0.001,0.013,***,0.4,0.02,0.022,12.7,67.9,WNW,1.1
H02,2009,11,23,11,0.001,0.018,0.018,0.5,0.022,0.024,14,64.4,W,1.1
H02,2009,11,23,12,0.002,0.018,0.019,0.5,0.022,0.025,16.7,58.6,WNW,1.6
H02,2009,11,23,13,0.001,0.012,0.029,0.4,0.011,0.017,17.5,48.9,WNW,2.3
H02,2009,11,23,14,0,0.009,0.031,0.3,0.01,0.015,18.3,45.2,W,2.8
H02,2009,11,23,15,0,0.022,0.034,0.3,0.006,0.013,17.5,45.8,WNW,2.7
H02,2009,11,23,16,0,0.017,0.029,0.4,0.01,0.017,16.3,49.7,WNW,2
H02,2009,11,23,17,0,0.027,0.025,0.4,0.01,0.021,14.6,56,W,1.9
H02,2009,11,23,18,0.001,0.039,0.02,0.5,0.013,0.026,13.7,58.6,W,2.3
H02,2009,11,23,19,0,0.027,0.021,0.5,0.01,0.024,13.2,56.8,NNW,1.7
H02,2009,11,23,20,0.001,0.023,0.018,0.6,0.014,0.027,12.7,59.3,NNW,2
H02,2009,11,23,21,0.001,0.02,0.017,0.6,0.014,0.028,11.9,62.1,N,1.3
H02,2009,11,23,22,0.001,0.019,0.016,0.4,0.009,0.029,11.6,63,N,1.8
H02,2009,11,23,23,0.001,0.021,0.007,0.5,0.009,0.035,9.1,77.3,NE,1.4
H02,2009,11,23,24,0,0.022,0.001,0.8,0.035,0.034,8.3,84.5,Calm,0.1
H02,2009,11,24,1,0,0.021,0.001,0.8,0.046,0.028,7,89.8,ENE,0.9
H02,2009,11,24,2,0,0.026,0,0.8,0.063,0.026,7,91.9,NE,0.6
H02,2009,11,24,3,0,0.028,0,0.6,0.037,0.023,7.2,92.1,NE,0.6
H02,2009,11,24,4,0,0.029,0,0.5,0.037,0.021,7.6,88.8,N,0.7
H02,2009,11,24,5,0,0.033,0,0.7,0.081,0.02,6.9,91,Calm,0.1
H02,2009,11,24,6,0.001,0.028,0.001,0.9,0.164,0.018,7.4,87.7,WNW,0.4
H02,2009,11,24,7,0.001,0.043,0,0.9,0.158,0.021,7.1,89.3,WNW,0.6
H02,2009,11,24,8,0.002,0.039,0.001,0.9,0.13,0.022,8.3,82.2,NNW,0.8
H02,2009,11,24,9,0.003,0.032,0.002,0.9,0.116,0.027,10.2,71.1,NNW,1.7
H02,2009,11,24,10,0.003,0.032,***,0.9,0.107,0.032,11.1,67.8,NNW,1.1
H02,2009,11,24,11,0.004,0.042,0.002,1,0.132,0.037,12.4,63,W,1.2
H02,2009,11,24,12,0.004,0.035,0.003,0.7,0.091,0.036,13.5,60.6,WNW,1.5
H02,2009,11,24,13,0.003,0.038,0.005,0.6,0.058,0.036,14.1,58.6,W,1.1
H02,2009,11,24,14,0.003,0.037,0.004,0.6,0.052,0.041,14.2,59.9,NNE,0.9
H02,2009,11,24,15,0.004,0.048,0.003,0.8,0.054,0.046,14.4,56.9,N,1.3
H02,2009,11,24,16,0.003,0.035,0.002,0.7,0.039,0.047,14.1,58.4,NNE,0.9
H02,2009,11,24,17,0.004,0.056,0,1,0.124,0.05,13.9,64.5,WNW,0.5
H02,2009,11,24,18,0.004,0.049,0,1.2,0.137,0.045,13.6,66.5,WNW,0.7
H02,2009,11,24,19,0.004,0.054,0,1.1,0.094,0.042,13.1,75.3,WNW,0.5
H02,2009,11,24,20,0.004,0.057,0,1.1,0.074,0.04,11.6,89.7,N,1.1
H02,2009,11,24,21,0.004,0.056,0,1.1,0.061,0.041,11.4,96.5,NNE,1.5
H02,2009,11,24,22,0.003,0.053,0,1.1,0.08,0.037,11.7,96.8,W,0.8
H02,2009,11,24,23,0.002,0.051,0,0.8,0.049,0.037,10.9,98.7,W,1.7
H02,2009,11,24,24,0.002,0.024,0,0.7,0.029,0.031,10.8,98.7,N,1.1
H02,2009,11,25,1,0.002,0.03,0,0.7,0.042,0.026,10.9,98.7,N,0.8
H02,2009,11,25,2,0.001,0.03,0,0.6,0.045,0.026,10.9,98.7,WNW,0.4
H02,2009,11,25,3,0.001,0.015,0.001,0.4,0.019,0.026,10.7,98.7,NW,1.5
H02,2009,11,25,4,0.001,0.021,0.004,0.3,0.009,0.024,11,98.7,N,1.2
H02,2009,11,25,5,0.001,0.028,0.001,0.4,0.015,0.028,11.2,98.7,NNE,1.3
H02,2009,11,25,6,0.001,0.014,0.001,0.3,0.019,0.027,11.3,98.7,NNW,0.9
H02,2009,11,25,7,0.001,0.022,0,0.6,0.093,0.031,11.6,98.7,NW,0.6
H02,2009,11,25,8,0.001,0.03,0.001,0.7,0.097,0.032,12.1,97.1,NW,1
H02,2009,11,25,9,0.002,0.039,0.001,0.7,0.089,0.032,12.8,93.5,NNW,0.7
H02,2009,11,25,10,0.003,0.041,***,0.7,0.083,0.036,14.6,87,NW,0.8
H02,2009,11,25,11,0.003,0.035,0.008,0.6,0.056,0.036,17.1,73.3,WNW,1.2
H02,2009,11,25,12,0.003,0.029,0.012,0.5,0.046,0.036,19.1,69.9,W,1
H02,2009,11,25,13,0.004,0.014,0.017,0.5,0.031,0.032,20,64.1,WSW,2.3
H02,2009,11,25,14,0.006,0.02,0.015,0.4,0.03,0.033,19.4,62.6,WSW,2.1
H02,2009,11,25,15,0.004,0.023,0.021,0.3,0.021,0.03,20.5,49,W,2.6
H02,2009,11,25,16,0.001,0.021,0.025,0.3,0.012,0.025,18.9,51.2,WNW,2
H02,2009,11,25,17,0.001,0.021,0.014,0.4,0.029,0.036,17,60.6,W,1.6
H02,2009,11,25,18,0.001,0.023,0.005,0.7,0.044,0.044,16,62.4,WNW,1
H02,2009,11,25,19,0.001,0.024,0.006,0.8,0.039,0.041,15.3,66.2,W,1
H02,2009,11,25,20,0,0.015,0.008,0.7,0.022,0.038,14.7,66.1,NNW,1.3
H02,2009,11,25,21,0,0.02,0.026,0.4,0.008,0.021,14.6,66.1,WNW,1.8
H02,2009,11,25,22,0,0.008,0.032,0.3,0.004,0.015,14.3,65.8,NW,1.7
H02,2009,11,25,23,0,0.019,0.024,0.4,0.011,0.022,13.6,67.4,NNW,1.7
H02,2009,11,25,24,0.001,0.02,0.017,0.4,0.014,0.028,12.8,69.5,W,0.6
H02,2009,11,26,1,0.001,0.024,***,0.5,0.015,0.033,12.4,66,NNW,1.2
H02,2009,11,26,2,0.001,0.023,0.014,0.4,0.016,0.033,12.6,62.5,W,1.6
H02,2009,11,26,3,0.001,0.013,0.027,0.2,0.002,0.02,12.1,64.8,WNW,1
H02,2009,11,26,4,0.002,0.009,0.022,0.2,0.005,0.024,11.5,68.3,NNE,1.2
H02,2009,11,26,5,0.001,0.024,0.017,0.3,0.007,0.029,12.1,72.2,WNW,1.7
H02,2009,11,26,6,0,0.014,0.01,0.3,0.028,0.035,9.6,80.4,E,0.9
H02,2009,11,26,7,0.001,0.023,0,0.7,0.115,0.041,9.7,82,ESE,0.6
H02,2009,11,26,8,0.001,0.033,0.001,1.2,0.133,0.043,11.5,76.5,ENE,0.8
H02,2009,11,26,9,0.002,0.013,0.005,0.8,0.064,0.043,14.8,60.5,N,1.7
H02,2009,11,26,10,0.003,0.013,0.015,0.5,0.036,0.038,16.1,51.5,NNW,1.6
H02,2009,11,26,11,0.001,0.011,0.021,0.4,0.023,0.033,17.8,44.7,NNW,1.7
H02,2009,11,26,12,0.001,0.012,0.025,0.3,0.021,0.031,19.1,39.2,NNW,2.1
H02,2009,11,26,13,0.001,0.009,0.029,0.3,0.015,0.025,20.1,40.5,NNW,1.8
H02,2009,11,26,14,0.001,0.021,0.031,0.3,0.015,0.024,20,38.1,NW,1.4
H02,2009,11,26,15,0.001,0.019,0.029,0.3,0.016,0.029,19.7,40,NNW,1.4
H02,2009,11,26,16,0.002,0.026,0.023,0.4,0.02,0.034,18.8,41.4,NNW,1
H02,2009,11,26,17,0.002,0.012,0.021,0.5,0.016,0.034,17.1,49.5,SSW,0.4
H02,2009,11,26,18,0.002,0.035,0.001,1.4,0.09,0.048,15.7,57.1,SSW,0.8
H02,2009,11,26,19,0.004,0.042,0,1.3,0.122,0.05,14.7,66,SSE,1.1
H02,2009,11,26,20,0.004,0.045,0,1,0.072,0.048,12.6,72.7,E,0.6
H02,2009,11,26,21,0.002,0.037,0,1,0.093,0.045,11.8,76.1,ENE,0.6
H02,2009,11,26,22,0.001,0.027,0,0.8,0.058,0.037,11.3,78.8,NE,1
H02,2009,11,26,23,0,0.02,0,0.6,0.039,0.033,11.6,77,ENE,0.8
H02,2009,11,26,24,0,0.021,0.001,0.4,0.011,0.029,12,75.3,E,0.5
H02,2009,11,27,1,***,0.015,***,***,***,***,12,77,Calm,0.2
H02,2009,11,27,2,0.002,0.041,0.001,0.9,0.077,0.036,12.1,78.8,W,1
H02,2009,11,27,3,0.002,0.029,0.001,0.8,0.078,0.033,12.1,79.3,WNW,0.7
H02,2009,11,27,4,0.003,0.045,0.001,0.7,0.072,0.031,12.2,78.5,NNW,0.9
H02,2009,11,27,5,0.002,0.036,0.001,0.6,0.077,0.029,12,79.2,N,0.7
H02,2009,11,27,6,0.002,0.033,0.001,0.6,0.094,0.028,12,79.4,WNW,0.6
H02,2009,11,27,7,0.002,0.03,0,0.7,0.109,0.027,11.8,79.7,N,1
H02,2009,11,27,8,0.003,0.035,0.001,0.6,0.085,0.027,12.6,75.4,NNW,1.5
H02,2009,11,27,9,0.003,0.026,0.001,0.8,0.092,0.03,14.2,70.5,NNE,0.4
H02,2009,11,27,10,0.005,0.038,0.001,0.9,0.129,0.039,15.3,65.8,WNW,0.4
H02,2009,11,27,11,0.006,0.05,0.001,0.9,0.137,0.045,16,63.7,NW,1.1
H02,2009,11,27,12,0.005,0.035,0.004,0.7,0.089,0.042,17,60,NNW,1.1
H02,2009,11,27,13,0.004,0.031,0.009,0.6,0.048,0.04,19.4,52.3,WNW,1.4
H02,2009,11,27,14,0.004,0.034,0.015,0.5,0.032,0.043,19.6,54.1,NW,1.1
H02,2009,11,27,15,0.004,0.03,0.019,0.5,0.021,0.041,19.2,59.4,SSW,0.8
H02,2009,11,27,16,0.004,0.034,0.018,0.5,0.017,0.041,19.1,58.8,W,0.8
H02,2009,11,27,17,0.005,0.05,0.003,0.7,0.064,0.059,17.8,65.2,NW,0.6
H02,2009,11,27,18,0.004,0.049,0,1.1,0.106,0.06,17,70,W,1.2
H02,2009,11,27,19,0.004,0.047,0,1.1,0.101,0.056,16.4,71.4,W,0.5
H02,2009,11,27,20,0.003,0.05,0,1.3,0.12,0.051,14.5,80.9,SSW,0.5
H02,2009,11,27,21,0.002,0.054,0,1.6,0.126,0.048,14.4,82,NNW,0.7
H02,2009,11,27,22,0.003,0.046,0,1.2,0.083,0.045,13.1,86.4,Calm,0
H02,2009,11,27,23,0.002,0.049,0.001,1.8,0.131,0.039,12,92.8,Calm,0
H02,2009,11,27,24,0.001,0.055,0,1.6,0.135,0.038,11.7,92.3,Calm,0.1
H02,2009,11,28,1,0.001,0.04,***,1.6,0.137,0.037,11.4,92.5,Calm,0.2
H02,2009,11,28,2,0.001,0.04,0,1.4,0.131,0.03,11.8,90.4,WNW,0.3
H02,2009,11,28,3,0.002,0.045,0,0.7,0.068,0.028,11.5,92.6,NW,0.6
H02,2009,11,28,4,0.001,0.036,0,0.7,0.061,0.024,10.5,92.7,Calm,0.2
H02,2009,11,28,5,0.001,0.035,0,0.8,0.092,0.021,10.1,95,NE,0.6
H02,2009,11,28,6,0.001,0.033,0,0.9,0.12,0.023,10,95.1,W,0.4
H02,2009,11,28,7,0.001,0.035,0,0.9,0.139,0.025,10.3,93.4,SE,0.5
H02,2009,11,28,8,0.001,0.039,0.001,1.2,0.145,0.027,11.8,91.1,E,0.9
H02,2009,11,28,9,0.002,0.036,0.002,0.9,0.083,0.034,14.4,79.5,NW,0.5
H02,2009,11,28,10,0.002,0.018,0.015,0.5,0.024,0.029,15.8,59.2,NW,1.8
H02,2009,11,28,11,0.001,0.025,0.019,0.5,0.022,0.028,17.5,52.3,NNW,2.6
H02,2009,11,28,12,0.001,0.017,0.025,0.5,0.019,0.026,18.3,46.3,NNW,2.8
H02,2009,11,28,13,0.001,0.028,0.033,0.4,0.009,0.017,18,45.3,WNW,3.5
H02,2009,11,28,14,0.001,0.026,0.033,0.4,0.011,0.018,17.8,41.5,NW,3.1
H02,2009,11,28,15,0.002,0.022,0.035,0.4,0.009,0.018,17.2,40.9,NW,3.1
H02,2009,11,28,16,0.002,0.031,0.031,0.4,0.011,0.022,15.8,41.7,WNW,2.6
H02,2009,11,28,17,0.002,0.034,0.028,0.5,0.013,0.024,14,45.4,WNW,3
H02,2009,11,28,18,0.002,0.031,0.025,0.6,0.013,0.024,12.7,44.9,NW,2.4
H02,2009,11,28,19,0.002,0.032,0.024,0.5,0.011,0.022,11.7,46.8,NW,1.4
H02,2009,11,28,20,0.001,0.014,0.024,0.5,0.011,0.021,11.2,42.8,NNW,2.3
H02,2009,11,28,21,0.002,0.015,0.024,0.5,0.011,0.02,10.5,45.5,NNW,1.9
H02,2009,11,28,22,0.001,0.014,0.02,0.5,0.015,0.024,9.9,47.7,NNW,2.9
H02,2009,11,28,23,0.001,0.012,0.017,0.6,0.018,0.027,9.5,52.1,N,1.7
H02,2009,11,28,24,0.001,0.022,0.017,0.5,0.016,0.026,9.7,50.3,NNW,2.7
H02,2009,11,29,1,0.001,0.015,***,0.5,0.012,0.028,9.3,55,NW,0.9
H02,2009,11,29,2,0,0.024,0.012,0.5,0.015,0.029,9,54.5,NNW,1.7
H02,2009,11,29,3,0,0.011,0.021,0.4,0.005,0.019,8.9,51.3,N,2.1
H02,2009,11,29,4,0,0.02,0.027,0.3,0,0.01,8.6,53.8,N,2.1
H02,2009,11,29,5,0.002,0.02,0.026,0.3,0,0.011,8.7,54.4,NNW,1.5
H02,2009,11,29,6,0,0.017,0.028,0.3,0,0.007,8.8,52.1,N,2.5
H02,2009,11,29,7,0,0.01,0.023,0.3,0,0.012,9,51.1,N,2.5
H02,2009,11,29,8,0,0.014,0.02,0.3,0.001,0.016,9.3,50.2,N,2.2
H02,2009,11,29,9,0,0.006,0.021,0.3,0.002,0.016,10.1,49.9,N,2.9
H02,2009,11,29,10,0,0.009,0.02,0.4,0.005,0.019,10.5,50.6,NNW,2.2
H02,2009,11,29,11,0,0.018,0.015,0.5,0.011,0.025,10.7,52.7,WNW,0.3
H02,2009,11,29,12,0,0.015,0.018,0.4,0.008,0.024,11,48.5,Calm,0.2
H02,2009,11,29,13,0.001,0.013,0.018,0.5,0.011,0.024,11.7,46.8,NW,0.5
H02,2009,11,29,14,0,0.015,0.022,0.4,0.004,0.021,11.9,46.4,ENE,1.3
H02,2009,11,29,15,0,0.017,0.021,0.5,0.007,0.022,12,44.1,SW,0.6
H02,2009,11,29,16,0,0.019,0.015,0.6,0.009,0.028,12.1,45.8,SSE,0.8
H02,2009,11,29,17,0.001,0.022,0.01,0.6,0.005,0.032,11.5,52.8,NE,1
H02,2009,11,29,18,0,0.029,0.004,0.6,0.003,0.038,11.7,47.4,E,0.3
H02,2009,11,29,19,0,0.022,0.003,0.6,0.003,0.037,10.5,65.1,NE,2.3
H02,2009,11,29,20,0,0.04,0.005,0.6,0.004,0.033,9.4,85,N,1.9
H02,2009,11,29,21,0,0.043,0.007,0.5,0.008,0.029,9.7,86.3,N,1.6
H02,2009,11,29,22,0,0.035,0.012,0.5,0.002,0.023,10,82.6,N,1
H02,2009,11,29,23,0,0.033,0.006,0.6,0.012,0.03,10.1,82.9,NW,1.2
H02,2009,11,29,24,0,0.034,0.003,0.6,0.016,0.029,9.6,81.1,NNW,1.3
H02,2009,11,30,1,0.001,0.032,***,0.5,0.023,0.029,9.6,81.3,NNW,1.1
H02,2009,11,30,2,0.001,0.035,0.002,0.5,0.016,0.027,9.7,83.7,WNW,0.9
H02,2009,11,30,3,0.001,0.027,0.003,0.4,0.008,0.025,9.8,83.9,NW,0.7
H02,2009,11,30,4,0.001,0.025,0.002,0.4,0.012,0.025,9.8,80.5,NNW,1.7
H02,2009,11,30,5,0.001,0.019,0.003,0.4,0.013,0.025,8.9,85.4,NNW,0.8
H02,2009,11,30,6,0,0.018,0.002,0.3,0.009,0.025,8.7,88.6,N,1.3
H02,2009,11,30,7,0,0.018,0,0.4,0.028,0.027,8.4,90.4,N,0.6
H02,2009,11,30,8,0.001,0.032,0.001,0.9,0.116,0.031,9.7,85,W,0.9
H02,2009,11,30,9,0.002,0.02,0.003,0.7,0.085,0.028,11.7,74.6,WNW,0.9
H02,2009,11,30,10,0.002,0.024,0.006,0.6,0.063,0.031,13.2,63.8,NW,1.3
H02,2009,11,30,11,0.002,0.015,0.013,0.5,0.036,0.03,15.1,49.1,NNW,1.5
H02,2009,11,30,12,0.001,0.02,0.016,0.4,0.035,0.032,16,46.6,NW,1.6
H02,2009,11,30,13,0.001,0.015,0.021,0.4,0.022,0.027,17.1,44,NW,1.9
H02,2009,11,30,14,0.001,0.015,0.024,0.3,0.019,0.027,17.2,42.7,NW,1.2
H02,2009,11,30,15,0.001,0.012,0.024,0.3,0.018,0.028,17.2,38.3,NNW,1.2
H02,2009,11,30,16,0.001,0.017,0.016,0.4,0.03,0.035,16.3,42.8,WNW,1.3
H02,2009,11,30,17,0.002,0.013,0.011,0.4,0.03,0.038,15,54,W,2.3
H02,2009,11,30,18,0.003,0.024,0.003,0.6,0.045,0.045,14,60.4,W,1.8
H02,2009,11,30,19,0.001,0.017,0.003,0.7,0.041,0.042,13.5,58.6,NNW,1.5
H02,2009,11,30,20,0.001,0.018,0.009,0.6,0.021,0.032,12.7,61.2,NNW,2.3
H02,2009,11,30,21,0.001,0.01,0.009,0.5,0.02,0.031,12.3,63.3,NNW,2.9
H02,2009,11,30,22,0.001,0.012,0.005,0.5,0.02,0.034,11.1,68.9,N,0.7
H02,2009,11,30,23,0.001,0.014,0.001,0.6,0.022,0.037,9.5,77.3,NE,1.1
H02,2009,11,30,24,0.001,0.012,0,0.6,0.034,0.035,9.7,78.2,N,0.7
H02,2009,12,1,1,0.001,0.022,***,0.9,0.071,0.033,10.3,72.6,NNW,1.4
H02,2009,12,1,2,0.001,0.019,0.001,0.6,0.031,0.033,9.1,74.7,NE,0.9
H02,2009,12,1,3,0,0.017,0.001,0.4,0.016,0.03,8.2,79.6,NNE,1.2
H02,2009,12,1,4,0.001,0.014,0.002,0.4,0.013,0.029,8.2,76.3,E,0.6
H02,2009,12,1,5,0.001,0.025,0.001,0.5,0.022,0.031,7.3,80.2,NE,0.8
H02,2009,12,1,6,0,0.017,0.001,0.4,0.032,0.029,7.3,82.1,E,1.1
H02,2009,12,1,7,0.001,0.018,0,0.6,0.091,0.028,7.3,83.4,N,0.8
H02,2009,12,1,8,0.001,0.017,0.001,0.8,0.077,0.028,9.1,75.6,NNE,1.5
H02,2009,12,1,9,0.001,0.016,0.006,0.6,0.039,0.023,12.4,61.3,NE,1.6
H02,2009,12,1,10,0.001,0.009,0.011,0.5,0.025,0.024,13.7,51.4,N,1.7
H02,2009,12,1,11,0.001,0.017,0.01,0.5,0.055,0.033,15.1,47.5,W,1.7
H02,2009,12,1,12,0.001,0.014,0.014,0.4,0.04,0.034,15.7,43.8,NNW,1.5
H02,2009,12,1,13,0.001,0.017,0.016,0.5,0.028,0.035,16.7,42,WNW,1.1
H02,2009,12,1,14,0.001,0.026,0.018,0.4,0.023,0.035,16.4,38.2,NNE,2
H02,2009,12,1,15,0.002,0.017,0.017,0.4,0.023,0.037,16.6,31.8,W,1.4
H02,2009,12,1,16,0.002,0.021,0.011,0.5,0.034,0.045,16.4,42.4,WSW,1.4
H02,2009,12,1,17,0.004,0.031,0.003,0.5,0.046,0.051,14.8,50.3,W,1.2
H02,2009,12,1,18,0.006,0.038,0.001,0.9,0.085,0.05,14,59.6,SW,0.9
H02,2009,12,1,19,0.003,0.036,0,1,0.064,0.046,11.6,70.7,E,0.6
H02,2009,12,1,20,0.002,0.027,0,1.2,0.097,0.046,10.6,76.5,ENE,0.8
H02,2009,12,1,21,0.002,0.018,0.001,1,0.075,0.044,11.6,62.1,N,0.8
H02,2009,12,1,22,0.002,0.021,0.006,0.5,0.013,0.037,11.6,63.1,NNW,2.4
H02,2009,12,1,23,0.002,0.007,0.007,0.4,0.012,0.035,10.2,66.9,NE,1.1
H02,2009,12,1,24,0.003,0.023,0,0.6,0.027,0.039,8.8,79,NE,1.2
H02,2009,12,2,1,0.002,0.032,***,0.8,0.052,0.037,8.5,80.3,NNE,1.2
H02,2009,12,2,2,0.001,0.023,0.001,0.8,0.067,0.033,7.1,86,ENE,0.5
H02,2009,12,2,3,0.001,0.025,0.001,0.8,0.076,0.031,6.8,85.5,E,0.8
H02,2009,12,2,4,0.001,0.031,0.001,0.7,0.074,0.028,6.2,89.2,N,0.8
H02,2009,12,2,5,0.001,0.025,0.001,0.7,0.087,0.027,6.3,88.6,ESE,0.5
H02,2009,12,2,6,0,0.024,0.001,0.7,0.132,0.023,5.8,89.3,SE,0.5
H02,2009,12,2,7,0.001,0.025,0.001,1,0.204,0.026,5.4,90,Calm,0.2
H02,2009,12,2,8,0.001,0.039,0.001,1.2,0.18,0.028,7.4,84.2,E,1.4
H02,2009,12,2,9,0.001,0.022,0.003,0.8,0.07,0.026,11.2,65,NNE,0.5
H02,2009,12,2,10,0.002,0.023,0.005,0.9,0.081,0.036,13.1,58.1,WNW,0.6
H02,2009,12,2,11,0.004,0.043,0.004,1,0.13,0.053,14.8,52.6,W,1.6
H02,2009,12,2,12,0.003,0.031,0.009,0.7,0.071,0.045,16.8,43.7,WNW,1.7
H02,2009,12,2,13,0.002,0.03,0.017,0.5,0.035,0.038,17.7,37.9,NNW,1.6
H02,2009,12,2,14,0.002,0.015,0.025,0.4,0.016,0.031,18.7,35.6,NNW,1.1
H02,2009,12,2,15,0.001,0.013,0.025,0.4,0.018,0.032,18.4,34.1,WNW,0.7
H02,2009,12,2,16,0.001,0.024,0.019,0.4,0.022,0.038,17.6,34,WNW,1
H02,2009,12,2,17,0.002,0.022,0.008,0.6,0.052,0.051,16,43,W,1.1
H02,2009,12,2,18,0.003,0.039,0.001,1,0.097,0.058,15.1,51.5,W,0.7
H02,2009,12,2,19,0.003,0.039,0.001,1.6,0.147,0.055,12.1,65.4,S,0.4
H02,2009,12,2,20,0.003,0.037,0,1.4,0.153,0.052,11.1,65.3,E,0.7
H02,2009,12,2,21,0.003,0.043,0,1.3,0.121,0.049,10,72.7,ENE,0.9
H02,2009,12,2,22,0.003,0.034,0,1.2,0.114,0.045,8.9,78.1,ENE,0.7
H02,2009,12,2,23,0.001,0.027,0,0.8,0.058,0.037,8.5,78.5,ENE,1.1
H02,2009,12,2,24,0,0.025,0,0.7,0.049,0.034,7.9,81,NE,1.1
H02,2009,12,3,1,***,0.023,***,***,***,***,8.1,81.3,ENE,1.1
H02,2009,12,3,2,0,0.018,0,0.9,0.077,0.039,9.3,75.1,S,0.4
H02,2009,12,3,3,0.001,0.021,0,0.7,0.044,0.039,9.7,72.1,NNW,0.7
H02,2009,12,3,4,0.002,0.025,0,0.6,0.05,0.039,9.5,74.7,N,0.9
H02,2009,12,3,5,0.002,0.037,0,0.5,0.048,0.035,9.2,74.5,N,1.1
H02,2009,12,3,6,0.002,0.026,0.001,0.5,0.055,0.034,9.5,73,NW,1.1
H02,2009,12,3,7,0.002,0.031,0.001,0.5,0.045,0.033,9.7,72,N,1.5
H02,2009,12,3,8,0.002,0.025,0,0.6,0.037,0.035,10.5,67.5,NNE,1.3
H02,2009,12,3,9,0.002,0.023,0.001,0.6,0.043,0.036,11.3,64,N,1.2
H02,2009,12,3,10,0.004,0.03,0.001,0.8,0.098,0.042,11.8,65.3,NW,0.9
H02,2009,12,3,11,0.004,0.035,0.001,0.8,0.1,0.042,12.2,62.3,NNW,1.5
H02,2009,12,3,12,0.003,0.021,0.003,0.6,0.045,0.044,13.2,59.1,N,2.4
H02,2009,12,3,13,0.003,0.022,0.008,0.5,0.019,0.041,13.2,64.5,NW,1.4
H02,2009,12,3,14,0.002,0.028,0.007,0.5,0.029,0.044,11.9,82.7,NW,1.2
H02,2009,12,3,15,0.002,0.039,0.007,0.5,0.028,0.045,11.9,87.3,NNW,1.7
H02,2009,12,3,16,0.003,0.031,0.006,0.5,0.016,0.047,12,87.6,N,1.4
H02,2009,12,3,17,0.002,0.029,0.004,0.6,0.018,0.05,11.3,91.6,NW,2.1
H02,2009,12,3,18,0.001,0.026,0.007,0.6,0.024,0.045,11.4,90.5,WNW,1.2
H02,2009,12,3,19,0.001,0.022,0.01,0.6,0.02,0.04,11.8,81,WNW,1.3
H02,2009,12,3,20,0,0.018,0.022,0.5,0.003,0.028,11.5,79,NNW,2
H02,2009,12,3,21,0,0.008,0.035,0.4,0,0.017,11.5,73.1,WNW,4
H02,2009,12,3,22,0,0.01,0.033,0.4,0,0.019,11,76.6,WNW,2.1
H02,2009,12,3,23,0,0.007,0.027,0.4,0.002,0.026,11.1,70.8,WNW,2.4
H02,2009,12,3,24,0,0.012,0.028,0.4,0.001,0.025,10.5,74,NW,1.4
H02,2009,12,4,1,0,0.009,***,0.4,0.004,0.03,10.2,73.9,NNW,2.1
H02,2009,12,4,2,0,0.01,0.021,0.4,0.003,0.03,9.3,78.3,NNE,0.6
H02,2009,12,4,3,0,0.009,0.03,0.3,0,0.022,10.3,71.8,NNW,1.9
H02,2009,12,4,4,0,0.009,0.025,0.3,0,0.024,9.7,75,NNW,2.8
H02,2009,12,4,5,0,0.01,0.019,0.3,0.004,0.031,9.8,74.5,NNW,1.7
H02,2009,12,4,6,0,0.013,0.012,0.4,0.008,0.038,9.8,71.1,NNW,1.6
H02,2009,12,4,7,0,0.009,0.007,0.5,0.027,0.045,9.7,69.7,N,1.9
H02,2009,12,4,8,0,0.015,0.007,0.6,0.015,0.042,10.2,68.9,NNW,1.5
H02,2009,12,4,9,0.002,0.009,0.012,0.6,0.032,0.04,13.1,57.7,NNW,2.7
H02,2009,12,4,10,0.002,0.01,0.018,0.4,0.021,0.035,14.3,50,NNW,3.1
H02,2009,12,4,11,0.001,0.011,0.027,0.3,0.007,0.025,15.5,37.8,N,4.3
H02,2009,12,4,12,0.001,0.015,0.03,0.3,0.004,0.023,16.8,34.5,N,3.6
H02,2009,12,4,13,0.001,0.008,0.03,0.3,0.005,0.024,16.8,34,NNW,3
H02,2009,12,4,14,0.001,0.018,0.029,0.3,0.007,0.027,17.7,34.9,WNW,2.2
H02,2009,12,4,15,0.001,0.011,0.025,0.4,0.013,0.031,17.1,38.2,WNW,2.4
H02,2009,12,4,16,0.001,0.014,0.021,0.4,0.011,0.032,15.8,43.2,NW,1.7
H02,2009,12,4,17,0.001,0.022,0.012,0.5,0.022,0.041,13.9,50.3,NW,1.3
H02,2009,12,4,18,0.001,0.017,0.009,0.7,0.028,0.042,13.1,53.2,NNW,1.6
H02,2009,12,4,19,0.002,0.024,0.006,0.8,0.033,0.042,12.3,57.5,NNW,1.4
H02,2009,12,4,20,0.001,0.021,0.005,0.8,0.027,0.041,11.5,59.3,NNW,1
H02,2009,12,4,21,0.001,0.031,0.002,0.8,0.026,0.042,11.1,60.1,WNW,1
H02,2009,12,4,22,0.001,0.025,0.005,0.7,0.014,0.039,9.9,65.6,N,1.1
H02,2009,12,4,23,0.002,0.027,0.002,0.8,0.016,0.043,9.6,65.4,NE,1.3
H02,2009,12,4,24,0.001,0.016,0.002,0.5,0.001,0.04,9.3,68.2,ENE,1.1
H02,2009,12,5,1,0,0.009,***,0.6,0.009,0.039,9.6,68.2,ENE,0.8
H02,2009,12,5,2,0.001,0.015,0,0.6,0.012,0.038,10.1,68,Calm,0.2
H02,2009,12,5,3,0.001,0.019,0,0.5,0.017,0.037,9.2,79.6,NNE,1.5
H02,2009,12,5,4,0.001,0.037,0,0.6,0.034,0.035,9.5,81.2,W,1.1
H02,2009,12,5,5,0.002,0.035,0,0.5,0.03,0.033,9.6,78.3,NNW,0.8
H02,2009,12,5,6,0.002,0.033,0,0.6,0.044,0.033,9.5,81.2,WNW,0.7
H02,2009,12,5,7,0.002,0.025,0,0.7,0.059,0.032,9.5,83,NNE,0.7
H02,2009,12,5,8,0.001,0.015,0.001,0.7,0.064,0.033,10.2,79.7,NNE,0.6
H02,2009,12,5,9,0.002,0.031,0.001,0.8,0.096,0.034,10.7,83.8,W,0.9
H02,2009,12,5,10,0.003,0.034,0.001,0.9,0.108,0.034,11.4,81.9,NW,1
H02,2009,12,5,11,0.002,0.025,0.002,0.8,0.076,0.033,9.9,90.2,W,2
H02,2009,12,5,12,0.002,0.03,0.002,0.6,0.048,0.035,10.3,97.6,W,1.8
H02,2009,12,5,13,0.002,0.038,0.002,0.7,0.057,0.04,11.1,98.7,E,0.6
H02,2009,12,5,14,0.001,0.038,0.002,0.8,0.039,0.041,10.8,98.7,N,1.8
H02,2009,12,5,15,0.001,0.034,0.001,0.9,0.056,0.04,10.5,98.7,NE,2.2
H02,2009,12,5,16,0.001,0.022,0.002,0.7,0.026,0.037,10.7,98.7,ENE,1.5
H02,2009,12,5,17,0.001,0.016,0.002,0.8,0.024,0.039,11,97.9,NNW,1.1
H02,2009,12,5,18,0.001,0.025,0.001,1.1,0.054,0.04,11,98.1,NNW,1.8
H02,2009,12,5,19,0.001,0.024,0.001,1,0.027,0.04,10.2,98.7,ENE,1.1
H02,2009,12,5,20,0,0.02,0.001,0.9,0.018,0.038,10.3,98.7,NE,1.7